Location: C�mpuri de-Sus
(45.9500°N, 22.5500°E)
Time: 02:04:17
(UTC+00:00)

Cosmos 839 Rocket - Pass Details

Date: 31 May 2022
Orbit: 968 x 2085 km, 65.9° (Epoch: 06 July)

Event Time Altitude Azimuth Distance (km) Brightness Sun altitude
Rises 20:25:40 0° 327° (NNW) 3,669 8.8 -16.6°
Reaches altitude 10° 20:28:31 10° 338° (NNW) 2,743 7.7 -16.9°
Maximum altitude 20:33:57 29° 39° (NE) 1,801 5.6 -17.3°
Drops below altitude 10° 20:40:00 10° 98° (E) 3,081 6.3 -17.8°
Enters shadow 20:40:59 - 102° (ESE) 3,394 6.5 -17.9°
